Time,TemperatureF,DewpointF,PressureIn,WindDirection,WindDirectionDegrees,WindSpeedMPH,WindSpeedGustMPH,Humidity,HourlyPrecipIn,Conditions,Clouds,dailyrainin,SoftwareType,DateUTC
2013-08-18 00:03:00,67.8,61.8,29.18,NE,44,0.0,0.0,81,0.04,,SKC,0.00,VWS V14.00,2013-08-18 04:03:00,
2013-08-18 00:08:00,67.8,61.8,29.18,NE,44,0.0,0.0,81,0.04,,SKC,0.00,VWS V14.00,2013-08-18 04:08:00,
2013-08-18 00:10:00,67.8,61.8,29.18,NE,44,0.0,0.0,81,0.04,,SKC,0.00,VWS V14.00,2013-08-18 04:10:00,
2013-08-18 00:13:00,67.8,61.8,29.18,NE,44,0.0,0.0,81,0.04,,SKC,0.00,VWS V14.00,2013-08-18 04:13:00,
2013-08-18 00:18:00,67.8,61.8,29.18,NE,44,0.0,0.0,81,0.04,,SKC,0.00,VWS V14.00,2013-08-18 04:18:00,
2013-08-18 00:23:00,67.6,61.6,29.18,NE,44,0.0,0.0,81,0.00,,SKC,0.00,VWS V14.00,2013-08-18 04:23:00,
2013-08-18 00:28:00,67.6,61.6,29.18,NE,44,0.0,0.0,81,0.04,,SKC,0.04,VWS V14.00,2013-08-18 04:28:00,
2013-08-18 00:33:00,67.6,61.6,29.18,NE,44,0.0,0.0,81,0.04,,SKC,0.04,VWS V14.00,2013-08-18 04:33:00,
2013-08-18 00:38:00,67.6,61.6,29.18,NE,44,0.0,0.0,81,0.04,,SKC,0.04,VWS V14.00,2013-08-18 04:38:00,
2013-08-18 00:43:00,67.6,61.6,29.18,NE,44,0.0,0.0,81,0.04,,SKC,0.04,VWS V14.00,2013-08-18 04:43:00,
2013-08-18 00:48:00,67.6,62.0,29.18,NE,44,0.0,0.0,82,0.04,,SKC,0.04,VWS V14.00,2013-08-18 04:48:00,
2013-08-18 00:53:00,67.6,62.0,29.18,NE,44,0.0,0.0,82,0.04,,SKC,0.04,VWS V14.00,2013-08-18 04:53:00,
2013-08-18 00:58:00,67.6,62.0,29.18,NE,44,0.0,0.0,82,0.04,,SKC,0.04,VWS V14.00,2013-08-18 04:58:00,
2013-08-18 01:03:00,67.6,62.0,29.18,NE,44,0.0,0.0,82,0.12,,SKC,0.12,VWS V14.00,2013-08-18 05:03:00,
2013-08-18 01:08:00,67.6,62.0,29.18,NE,44,0.0,0.0,82,0.12,,SKC,0.12,VWS V14.00,2013-08-18 05:08:00,
2013-08-18 01:13:00,67.6,62.0,29.18,NE,44,0.0,0.0,82,0.12,,SKC,0.12,VWS V14.00,2013-08-18 05:13:00,
2013-08-18 01:18:00,67.5,61.8,29.18,NE,44,0.0,0.0,82,0.12,,SKC,0.12,VWS V14.00,2013-08-18 05:18:00,
2013-08-18 01:23:00,67.5,61.8,29.18,NE,44,0.0,0.0,82,0.16,,SKC,0.16,VWS V14.00,2013-08-18 05:23:00,
2013-08-18 01:28:00,67.5,61.8,29.18,NE,44,0.0,0.0,82,0.16,,SKC,0.16,VWS V14.00,2013-08-18 05:28:00,
2013-08-18 01:33:00,67.3,61.6,29.18,NE,44,0.0,0.0,82,0.16,,SKC,0.20,VWS V14.00,2013-08-18 05:33:00,
2013-08-18 01:38:00,67.3,61.6,29.18,NE,44,0.0,0.0,82,0.16,,SKC,0.20,VWS V14.00,2013-08-18 05:38:00,
2013-08-18 01:43:00,67.3,61.6,29.18,NE,44,0.0,0.0,82,0.16,,SKC,0.20,VWS V14.00,2013-08-18 05:43:00,
2013-08-18 01:48:00,67.3,61.6,29.18,NE,44,0.0,0.0,82,0.16,,SKC,0.20,VWS V14.00,2013-08-18 05:48:00,
2013-08-18 01:53:00,67.3,62.0,29.18,NE,44,0.0,0.0,83,0.16,,SKC,0.20,VWS V14.00,2013-08-18 05:53:00,
2013-08-18 01:58:00,67.3,62.0,29.18,NE,44,0.0,0.0,83,0.16,,SKC,0.20,VWS V14.00,2013-08-18 05:58:00,
2013-08-18 02:03:00,67.3,62.0,29.18,NE,44,0.0,0.0,83,0.16,,SKC,0.20,VWS V14.00,2013-08-18 06:03:00,
2013-08-18 02:08:00,67.3,62.0,29.18,NE,44,0.0,0.0,83,0.16,,SKC,0.20,VWS V14.00,2013-08-18 06:08:00,
2013-08-18 02:13:00,67.3,62.0,29.18,NE,44,0.0,0.0,83,0.08,,SKC,0.20,VWS V14.00,2013-08-18 06:13:00,
2013-08-18 02:18:00,67.3,62.0,29.18,NE,44,0.0,0.0,83,0.08,,SKC,0.20,VWS V14.00,2013-08-18 06:18:00,
2013-08-18 02:23:00,67.3,62.0,29.18,NE,44,0.0,0.0,83,0.08,,SKC,0.20,VWS V14.00,2013-08-18 06:23:00,
2013-08-18 02:28:00,67.3,62.0,29.18,NE,44,0.0,0.0,83,0.08,,SKC,0.20,VWS V14.00,2013-08-18 06:28:00,
2013-08-18 02:33:00,67.3,62.3,29.18,NE,44,0.0,0.0,84,0.04,,SKC,0.20,VWS V14.00,2013-08-18 06:33:00,
2013-08-18 02:38:00,67.3,62.3,29.15,NE,44,0.0,0.0,84,0.04,,SKC,0.20,VWS V14.00,2013-08-18 06:38:00,
2013-08-18 02:43:00,67.1,62.1,29.15,NE,44,0.0,0.0,84,0.00,,SKC,0.20,VWS V14.00,2013-08-18 06:43:00,
2013-08-18 02:48:00,67.1,62.1,29.15,NE,44,0.0,0.0,84,0.00,,SKC,0.20,VWS V14.00,2013-08-18 06:48:00,
2013-08-18 02:53:00,67.1,62.1,29.18,NE,44,0.0,0.0,84,0.00,,SKC,0.20,VWS V14.00,2013-08-18 06:53:00,
2013-08-18 02:58:00,67.1,62.1,29.18,NE,44,0.0,0.0,84,0.00,,SKC,0.20,VWS V14.00,2013-08-18 06:58:00,
2013-08-18 03:03:00,67.1,62.1,29.18,NE,44,0.0,0.0,84,0.00,,SKC,0.20,VWS V14.00,2013-08-18 07:03:00,
2013-08-18 03:08:00,67.1,62.1,29.18,NE,44,0.0,0.0,84,0.00,,SKC,0.20,VWS V14.00,2013-08-18 07:08:00,
2013-08-18 03:13:00,67.1,62.1,29.18,NE,44,0.0,0.0,84,0.00,,SKC,0.20,VWS V14.00,2013-08-18 07:13:00,
2013-08-18 03:18:00,67.1,62.1,29.18,NE,44,0.0,0.0,84,0.00,,SKC,0.20,VWS V14.00,2013-08-18 07:18:00,
2013-08-18 03:23:00,67.1,62.5,29.15,NE,44,0.0,0.0,85,0.00,,SKC,0.20,VWS V14.00,2013-08-18 07:23:00,
2013-08-18 03:28:00,67.1,62.5,29.15,NE,44,0.0,0.0,85,0.00,,SKC,0.20,VWS V14.00,2013-08-18 07:28:00,
2013-08-18 03:33:00,67.1,62.5,29.15,NE,44,0.0,0.0,85,0.00,,SKC,0.20,VWS V14.00,2013-08-18 07:33:00,
2013-08-18 03:38:00,67.1,62.5,29.15,NE,44,0.0,0.0,85,0.00,,SKC,0.20,VWS V14.00,2013-08-18 07:38:00,
2013-08-18 03:43:00,67.1,62.5,29.15,NE,44,0.0,0.0,85,0.00,,SKC,0.20,VWS V14.00,2013-08-18 07:43:00,
2013-08-18 03:48:00,67.1,62.5,29.15,NE,44,0.0,0.0,85,0.00,,SKC,0.20,VWS V14.00,2013-08-18 07:48:00,
2013-08-18 03:53:00,67.1,62.5,29.15,NE,44,0.0,0.0,85,0.00,,SKC,0.20,VWS V14.00,2013-08-18 07:53:00,
2013-08-18 03:58:00,67.1,62.5,29.15,NE,44,0.0,0.0,85,0.00,,SKC,0.20,VWS V14.00,2013-08-18 07:58:00,
2013-08-18 04:03:00,67.3,62.6,29.15,NE,44,0.0,0.0,85,0.00,,SKC,0.20,VWS V14.00,2013-08-18 08:03:00,
2013-08-18 04:08:00,67.1,62.5,29.15,NE,44,0.0,0.0,85,0.00,,SKC,0.20,VWS V14.00,2013-08-18 08:08:00,
2013-08-18 04:13:00,67.1,62.5,29.15,NE,44,0.0,0.0,85,0.00,,SKC,0.20,VWS V14.00,2013-08-18 08:13:00,
2013-08-18 04:18:00,67.1,62.5,29.15,NE,44,0.0,0.0,85,0.00,,SKC,0.20,VWS V14.00,2013-08-18 08:18:00,
2013-08-18 04:23:00,67.1,62.5,29.18,NE,44,0.0,0.0,85,0.00,,SKC,0.20,VWS V14.00,2013-08-18 08:23:00,
2013-08-18 04:28:00,67.1,62.5,29.18,NE,44,0.0,0.0,85,0.00,,SKC,0.20,VWS V14.00,2013-08-18 08:28:00,
2013-08-18 04:33:00,67.1,62.5,29.18,NE,44,0.0,0.0,85,0.00,,SKC,0.20,VWS V14.00,2013-08-18 08:33:00,
2013-08-18 04:38:00,67.1,62.5,29.18,NE,44,0.0,0.0,85,0.00,,SKC,0.20,VWS V14.00,2013-08-18 08:38:00,
2013-08-18 04:43:00,67.1,62.8,29.18,NE,44,0.0,0.0,86,0.00,,SKC,0.20,VWS V14.00,2013-08-18 08:43:00,
2013-08-18 04:49:00,67.1,62.8,29.18,NE,44,0.0,0.0,86,0.00,,SKC,0.20,VWS V14.00,2013-08-18 08:49:00,
2013-08-18 04:54:00,67.1,62.8,29.15,NE,44,0.0,0.0,86,0.00,,SKC,0.20,VWS V14.00,2013-08-18 08:54:00,
2013-08-18 04:59:00,67.1,62.8,29.15,NE,44,0.0,0.0,86,0.00,,SKC,0.20,VWS V14.00,2013-08-18 08:59:00,
2013-08-18 05:04:00,67.1,62.8,29.15,NE,44,0.0,0.0,86,0.00,,SKC,0.20,VWS V14.00,2013-08-18 09:04:00,
2013-08-18 05:09:00,67.1,62.8,29.15,NE,44,0.0,0.0,86,0.00,,SKC,0.20,VWS V14.00,2013-08-18 09:09:00,
2013-08-18 05:14:00,67.1,62.8,29.15,NE,44,0.0,0.0,86,0.00,,SKC,0.20,VWS V14.00,2013-08-18 09:14:00,
2013-08-18 05:19:00,67.1,62.8,29.15,NE,44,0.0,0.0,86,0.00,,SKC,0.20,VWS V14.00,2013-08-18 09:19:00,
2013-08-18 05:24:00,67.3,63.0,29.18,NE,44,0.0,0.0,86,0.00,,SKC,0.20,VWS V14.00,2013-08-18 09:24:00,
2013-08-18 05:29:00,67.3,63.0,29.18,NE,44,0.0,0.0,86,0.00,,SKC,0.20,VWS V14.00,2013-08-18 09:29:00,
2013-08-18 05:34:00,67.3,63.0,29.18,NE,44,0.0,0.0,86,0.00,,SKC,0.20,VWS V14.00,2013-08-18 09:34:00,
2013-08-18 05:39:00,67.3,63.0,29.18,NE,44,0.0,0.0,86,0.00,,SKC,0.20,VWS V14.00,2013-08-18 09:39:00,
2013-08-18 05:44:00,67.3,63.0,29.18,NE,44,0.0,0.0,86,0.00,,SKC,0.20,VWS V14.00,2013-08-18 09:44:00,
2013-08-18 05:49:00,67.3,63.0,29.18,NE,44,0.0,0.0,86,0.00,,SKC,0.20,VWS V14.00,2013-08-18 09:49:00,
2013-08-18 05:54:00,67.3,63.0,29.18,NE,44,0.0,0.0,86,0.00,,SKC,0.20,VWS V14.00,2013-08-18 09:54:00,
2013-08-18 05:59:00,67.1,62.8,29.18,NE,44,0.0,0.0,86,0.00,,SKC,0.20,VWS V14.00,2013-08-18 09:59:00,
2013-08-18 06:04:00,67.1,62.8,29.18,NE,44,0.0,0.0,86,0.00,,SKC,0.20,VWS V14.00,2013-08-18 10:04:00,
2013-08-18 06:09:00,67.1,62.8,29.18,NE,44,0.0,0.0,86,0.00,,SKC,0.20,VWS V14.00,2013-08-18 10:09:00,
2013-08-18 06:14:00,67.1,62.8,29.18,NE,44,0.0,0.0,86,0.00,,SKC,0.20,VWS V14.00,2013-08-18 10:14:00,
2013-08-18 06:19:00,67.1,62.8,29.18,NE,44,0.0,0.0,86,0.00,,SKC,0.20,VWS V14.00,2013-08-18 10:19:00,
2013-08-18 06:24:00,67.1,62.8,29.18,NE,44,0.0,0.0,86,0.00,,SKC,0.20,VWS V14.00,2013-08-18 10:24:00,
2013-08-18 06:29:00,67.1,62.8,29.18,NE,44,0.0,0.0,86,0.00,,SKC,0.20,VWS V14.00,2013-08-18 10:29:00,
2013-08-18 06:34:00,67.1,63.1,29.18,NE,44,0.0,0.0,87,0.00,,SKC,0.20,VWS V14.00,2013-08-18 10:34:00,
2013-08-18 06:39:00,67.1,63.1,29.18,NE,44,0.0,0.0,87,0.00,,SKC,0.20,VWS V14.00,2013-08-18 10:39:00,
2013-08-18 06:44:00,66.9,62.9,29.18,NE,44,0.0,0.0,87,0.00,,SKC,0.20,VWS V14.00,2013-08-18 10:44:00,
2013-08-18 06:49:00,66.9,62.9,29.18,NE,44,0.0,0.0,87,0.00,,SKC,0.20,VWS V14.00,2013-08-18 10:49:00,
2013-08-18 06:54:00,66.9,62.9,29.18,NE,44,0.0,0.0,87,0.00,,SKC,0.20,VWS V14.00,2013-08-18 10:54:00,
2013-08-18 06:59:00,66.9,62.9,29.18,NE,44,0.0,0.0,87,0.00,,SKC,0.20,VWS V14.00,2013-08-18 10:59:00,
2013-08-18 07:04:00,66.9,62.9,29.18,NE,44,0.0,0.0,87,0.00,,SKC,0.20,VWS V14.00,2013-08-18 11:04:00,
2013-08-18 07:09:00,66.9,62.9,29.18,NE,44,0.0,0.0,87,0.00,,SKC,0.20,VWS V14.00,2013-08-18 11:09:00,
2013-08-18 07:14:00,66.9,62.9,29.18,NE,44,0.0,0.0,87,0.00,,SKC,0.20,VWS V14.00,2013-08-18 11:14:00,
2013-08-18 07:19:00,66.9,62.9,29.18,NE,44,0.0,0.0,87,0.00,,SKC,0.20,VWS V14.00,2013-08-18 11:19:00,
2013-08-18 07:24:00,67.1,63.1,29.18,NE,44,0.0,0.0,87,0.00,,SKC,0.20,VWS V14.00,2013-08-18 11:24:00,
2013-08-18 07:29:00,67.1,63.1,29.18,NE,44,0.0,0.0,87,0.00,,SKC,0.20,VWS V14.00,2013-08-18 11:29:00,
2013-08-18 07:34:00,67.1,63.1,29.18,NE,44,0.0,0.0,87,0.00,,SKC,0.20,VWS V14.00,2013-08-18 11:34:00,
2013-08-18 07:39:00,67.1,63.1,29.18,NE,44,0.0,0.0,87,0.00,,SKC,0.20,VWS V14.00,2013-08-18 11:39:00,
2013-08-18 07:44:00,67.1,63.1,29.18,NE,44,0.0,0.0,87,0.00,,SKC,0.20,VWS V14.00,2013-08-18 11:44:00,
2013-08-18 07:49:00,67.1,63.1,29.18,NE,44,0.0,0.0,87,0.00,,SKC,0.20,VWS V14.00,2013-08-18 11:49:00,
2013-08-18 07:54:00,67.3,63.6,29.21,NE,44,0.0,0.0,88,0.00,,SKC,0.20,VWS V14.00,2013-08-18 11:54:00,
2013-08-18 07:59:00,67.3,63.6,29.21,NE,44,0.0,0.0,88,0.00,,SKC,0.20,VWS V14.00,2013-08-18 11:59:00,
2013-08-18 08:04:00,67.5,63.8,29.21,NE,44,0.0,0.0,88,0.00,,SKC,0.20,VWS V14.00,2013-08-18 12:04:00,
2013-08-18 08:09:00,67.5,63.8,29.21,NE,44,0.0,0.0,88,0.00,,SKC,0.20,VWS V14.00,2013-08-18 12:09:00,
2013-08-18 08:14:00,67.6,64.0,29.21,NE,44,0.0,0.0,88,0.00,,SKC,0.20,VWS V14.00,2013-08-18 12:14:00,
2013-08-18 08:19:00,67.8,64.1,29.21,NE,44,0.0,0.0,88,0.00,,SKC,0.20,VWS V14.00,2013-08-18 12:19:00,
2013-08-18 08:24:00,68.0,64.3,29.21,NE,44,0.0,0.0,88,0.00,,SKC,0.20,VWS V14.00,2013-08-18 12:24:00,
2013-08-18 08:29:00,68.0,64.3,29.21,NE,44,0.0,0.0,88,0.00,,SKC,0.20,VWS V14.00,2013-08-18 12:29:00,
2013-08-18 08:34:00,68.0,64.3,29.21,NE,44,0.0,0.0,88,0.00,,SKC,0.20,VWS V14.00,2013-08-18 12:34:00,
2013-08-18 08:39:00,68.2,64.5,29.21,NE,44,0.0,0.0,88,0.00,,SKC,0.20,VWS V14.00,2013-08-18 12:39:00,
2013-08-18 08:44:00,68.4,64.7,29.21,NE,44,0.0,0.0,88,0.00,,SKC,0.20,VWS V14.00,2013-08-18 12:44:00,
2013-08-18 08:49:00,68.4,64.7,29.21,NE,44,0.0,0.0,88,0.00,,SKC,0.20,VWS V14.00,2013-08-18 12:49:00,
2013-08-18 08:54:00,68.4,64.7,29.21,NE,44,0.0,0.0,88,0.00,,SKC,0.20,VWS V14.00,2013-08-18 12:54:00,
2013-08-18 08:59:00,68.4,64.7,29.21,NE,44,0.0,0.0,88,0.00,,SKC,0.20,VWS V14.00,2013-08-18 12:59:00,
2013-08-18 09:04:00,68.4,64.7,29.21,NE,44,0.0,0.0,88,0.00,,SKC,0.20,VWS V14.00,2013-08-18 13:04:00,
2013-08-18 09:09:00,68.5,64.8,29.23,NE,44,0.0,0.0,88,0.00,,SKC,0.20,VWS V14.00,2013-08-18 13:09:00,
2013-08-18 09:14:00,68.5,64.8,29.23,NE,44,0.0,0.0,88,0.00,,SKC,0.20,VWS V14.00,2013-08-18 13:14:00,
2013-08-18 09:19:00,68.7,65.0,29.23,NE,44,0.0,0.0,88,0.00,,SKC,0.20,VWS V14.00,2013-08-18 13:19:00,
2013-08-18 09:24:00,68.7,65.3,29.23,NE,44,0.0,0.0,89,0.00,,SKC,0.20,VWS V14.00,2013-08-18 13:24:00,
2013-08-18 09:29:00,68.9,65.5,29.23,NE,44,0.0,0.0,89,0.00,,SKC,0.20,VWS V14.00,2013-08-18 13:29:00,
2013-08-18 09:34:00,68.9,65.5,29.23,NE,44,0.0,0.0,89,0.00,,SKC,0.20,VWS V14.00,2013-08-18 13:34:00,
2013-08-18 09:39:00,68.9,65.2,29.23,NE,44,0.0,0.0,88,0.00,,SKC,0.20,VWS V14.00,2013-08-18 13:39:00,
2013-08-18 09:44:00,69.1,65.7,29.23,NE,44,0.0,0.0,89,0.00,,SKC,0.20,VWS V14.00,2013-08-18 13:44:00,
2013-08-18 09:49:00,69.3,65.9,29.23,NE,44,0.0,0.0,89,0.00,,SKC,0.20,VWS V14.00,2013-08-18 13:49:00,
2013-08-18 09:54:00,69.4,66.1,29.23,NE,44,0.0,0.0,89,0.00,,SKC,0.20,VWS V14.00,2013-08-18 13:54:00,
2013-08-18 09:59:00,69.4,66.1,29.23,NE,44,0.0,0.0,89,0.00,,SKC,0.20,VWS V14.00,2013-08-18 13:59:00,
2013-08-18 10:04:00,69.4,66.1,29.23,NE,44,0.0,0.0,89,0.00,,SKC,0.20,VWS V14.00,2013-08-18 14:04:00,
2013-08-18 10:09:00,69.4,66.1,29.23,NE,44,0.0,0.0,89,0.04,,SKC,0.24,VWS V14.00,2013-08-18 14:09:00,
2013-08-18 10:14:00,69.4,66.1,29.23,NE,44,0.0,0.0,89,0.04,,SKC,0.24,VWS V14.00,2013-08-18 14:14:00,
2013-08-18 10:19:00,69.3,65.9,29.23,NE,44,0.0,0.0,89,0.04,,SKC,0.24,VWS V14.00,2013-08-18 14:19:00,
2013-08-18 10:24:00,69.1,65.7,29.23,NE,44,0.0,0.0,89,0.04,,SKC,0.24,VWS V14.00,2013-08-18 14:24:00,
2013-08-18 10:29:00,69.3,65.9,29.23,NE,44,0.0,0.0,89,0.04,,SKC,0.24,VWS V14.00,2013-08-18 14:29:00,
2013-08-18 10:34:00,69.3,65.9,29.23,NE,44,0.0,0.0,89,0.04,,SKC,0.24,VWS V14.00,2013-08-18 14:34:00,
2013-08-18 10:39:00,69.1,65.4,29.23,NE,41,0.0,2.7,88,0.08,,SKC,0.28,VWS V14.00,2013-08-18 14:39:00,
2013-08-18 10:44:00,69.3,65.6,29.23,NNE,29,0.0,3.1,88,0.08,,SKC,0.28,VWS V14.00,2013-08-18 14:44:00,
2013-08-18 10:49:00,69.6,66.2,29.23,NNE,29,0.0,3.1,89,0.08,,SKC,0.28,VWS V14.00,2013-08-18 14:49:00,
2013-08-18 10:55:00,70.5,67.1,29.23,NNE,29,0.0,0.0,89,0.08,,SKC,0.28,VWS V14.00,2013-08-18 14:55:00,
2013-08-18 11:00:00,71.1,67.7,29.23,NE,35,0.0,0.0,89,0.08,,SKC,0.28,VWS V14.00,2013-08-18 15:00:00,
2013-08-18 11:05:00,71.2,67.8,29.23,NE,35,0.0,0.0,89,0.08,,SKC,0.28,VWS V14.00,2013-08-18 15:05:00,
2013-08-18 11:10:00,71.6,68.2,29.23,NE,35,0.0,0.0,89,0.08,,SKC,0.28,VWS V14.00,2013-08-18 15:10:00,
2013-08-18 11:15:00,72.0,68.6,29.23,NE,35,0.0,0.0,89,0.04,,SKC,0.28,VWS V14.00,2013-08-18 15:15:00,
2013-08-18 11:20:00,72.0,68.2,29.23,NE,35,0.0,0.0,88,0.04,,SKC,0.28,VWS V14.00,2013-08-18 15:20:00,
2013-08-18 11:25:00,72.1,68.7,29.23,NE,35,0.0,0.0,89,0.04,,SKC,0.28,VWS V14.00,2013-08-18 15:25:00,
2013-08-18 11:30:00,72.9,69.4,29.23,NE,35,0.0,0.0,89,0.04,,SKC,0.28,VWS V14.00,2013-08-18 15:30:00,
2013-08-18 11:35:00,73.4,70.0,29.23,NE,35,0.0,0.0,89,0.04,,SKC,0.28,VWS V14.00,2013-08-18 15:35:00,
2013-08-18 11:40:00,73.6,70.1,29.23,NE,35,0.0,0.0,89,0.04,,SKC,0.28,VWS V14.00,2013-08-18 15:40:00,
2013-08-18 11:45:00,73.6,69.8,29.23,NE,35,0.0,0.0,88,0.00,,SKC,0.28,VWS V14.00,2013-08-18 15:45:00,
2013-08-18 11:50:00,73.9,70.2,29.23,NE,35,0.0,0.0,88,0.00,,SKC,0.28,VWS V14.00,2013-08-18 15:50:00,
2013-08-18 11:55:00,74.1,70.3,29.23,South,170,0.0,0.0,88,0.00,,SKC,0.28,VWS V14.00,2013-08-18 15:55:00,
2013-08-18 12:00:00,74.5,70.7,29.23,South,170,0.0,0.0,88,0.00,,SKC,0.28,VWS V14.00,2013-08-18 16:00:00,
2013-08-18 12:05:00,74.8,71.1,29.23,South,180,0.0,2.7,88,0.00,,SKC,0.28,VWS V14.00,2013-08-18 16:05:00,
2013-08-18 12:10:00,75.4,71.2,29.23,SSW,193,0.0,3.6,87,0.00,,SKC,0.28,VWS V14.00,2013-08-18 16:10:00,
2013-08-18 12:15:00,75.6,71.4,29.23,SSW,193,0.0,0.0,87,0.00,,SKC,0.28,VWS V14.00,2013-08-18 16:15:00,
2013-08-18 12:20:00,75.9,71.8,29.23,SW,214,0.0,0.0,87,0.00,,SKC,0.28,VWS V14.00,2013-08-18 16:20:00,
2013-08-18 12:25:00,76.3,72.1,29.23,SSE,160,0.0,5.8,87,0.00,,SKC,0.28,VWS V14.00,2013-08-18 16:25:00,
2013-08-18 12:30:00,76.5,72.0,29.23,SW,221,0.0,5.8,86,0.00,,SKC,0.28,VWS V14.00,2013-08-18 16:30:00,
2013-08-18 12:35:00,77.0,72.2,29.23,East,89,0.0,0.0,85,0.00,,SKC,0.28,VWS V14.00,2013-08-18 16:35:00,
2013-08-18 12:40:00,77.2,72.3,29.23,WNW,303,0.0,6.3,85,0.00,,SKC,0.28,VWS V14.00,2013-08-18 16:40:00,
2013-08-18 12:45:00,76.8,71.6,29.23,NNW,337,0.0,0.0,84,0.00,,SKC,0.28,VWS V14.00,2013-08-18 16:45:00,
2013-08-18 12:50:00,77.0,71.4,29.23,SSE,168,0.0,3.1,83,0.00,,SKC,0.28,VWS V14.00,2013-08-18 16:50:00,
2013-08-18 12:55:00,77.2,70.9,29.23,NW,306,0.0,4.9,81,0.00,,SKC,0.28,VWS V14.00,2013-08-18 16:55:00,
2013-08-18 13:00:00,77.0,70.4,29.23,West,266,0.0,4.9,80,0.00,,SKC,0.28,VWS V14.00,2013-08-18 17:00:00,
2013-08-18 13:05:00,77.2,70.5,29.23,WSW,241,3.2,3.2,80,0.00,,SKC,0.28,VWS V14.00,2013-08-18 17:05:00,
2013-08-18 13:10:00,77.7,71.4,29.23,SE,142,0.0,2.7,81,0.00,,SKC,0.28,VWS V14.00,2013-08-18 17:10:00,
2013-08-18 13:15:00,78.3,71.6,29.23,NNW,343,0.0,4.0,80,0.00,,SKC,0.28,VWS V14.00,2013-08-18 17:15:00,
2013-08-18 13:20:00,78.8,71.7,29.21,NNW,335,0.0,4.0,79,0.00,,SKC,0.28,VWS V14.00,2013-08-18 17:20:00,
2013-08-18 13:25:00,78.8,71.7,29.21,SSW,205,7.5,7.5,79,0.00,,SKC,0.28,VWS V14.00,2013-08-18 17:25:00,
2013-08-18 13:30:00,79.2,71.7,29.21,NW,319,0.0,6.3,78,0.00,,SKC,0.28,VWS V14.00,2013-08-18 17:30:00,
2013-08-18 13:35:00,79.3,71.5,29.21,SSW,208,0.0,0.0,77,0.00,,SKC,0.28,VWS V14.00,2013-08-18 17:35:00,
2013-08-18 13:40:00,79.5,71.7,29.21,SSW,212,0.0,5.4,77,0.00,,SKC,0.28,VWS V14.00,2013-08-18 17:40:00,
2013-08-18 13:45:00,79.5,71.3,29.21,WNW,302,0.0,4.5,76,0.00,,SKC,0.28,VWS V14.00,2013-08-18 17:45:00,
2013-08-18 13:50:00,79.3,71.1,29.21,East,93,0.0,4.5,76,0.00,,SKC,0.28,VWS V14.00,2013-08-18 17:50:00,
2013-08-18 13:55:00,79.5,71.7,29.21,East,93,0.0,0.0,77,0.00,,SKC,0.28,VWS V14.00,2013-08-18 17:55:00,
2013-08-18 14:00:00,79.9,71.6,29.21,WNW,286,0.0,3.1,76,0.00,,SKC,0.00,VWS V14.00,2013-08-18 18:00:00,
2013-08-18 14:05:00,80.6,71.9,29.21,West,269,0.0,0.0,75,0.00,,SKC,0.28,VWS V14.00,2013-08-18 18:05:00,
2013-08-18 14:10:00,80.6,71.6,29.21,SE,126,0.0,2.7,74,0.00,,SKC,0.28,VWS V14.00,2013-08-18 18:10:00,
2013-08-18 14:15:00,80.4,71.4,29.21,South,181,0.0,0.0,74,0.00,,SKC,0.28,VWS V14.00,2013-08-18 18:15:00,
2013-08-18 14:20:00,80.4,71.4,29.21,NW,326,0.0,0.0,74,0.00,,SKC,0.28,VWS V14.00,2013-08-18 18:20:00,
2013-08-18 14:25:00,79.9,69.6,29.21,WNW,292,0.0,2.7,71,0.00,,SKC,0.28,VWS V14.00,2013-08-18 18:25:00,
2013-08-18 14:30:00,79.5,69.3,29.21,WNW,291,0.0,2.7,71,0.00,,SKC,0.28,VWS V14.00,2013-08-18 18:30:00,
2013-08-18 14:35:00,79.3,69.1,29.21,WNW,291,0.0,0.0,71,0.00,,SKC,0.28,VWS V14.00,2013-08-18 18:35:00,
2013-08-18 14:40:00,79.0,68.8,29.21,WNW,303,0.0,0.0,71,0.00,,SKC,0.28,VWS V14.00,2013-08-18 18:40:00,
2013-08-18 14:45:00,79.3,69.1,29.21,WNW,303,0.0,0.0,71,0.00,,SKC,0.28,VWS V14.00,2013-08-18 18:45:00,
2013-08-18 14:50:00,80.1,70.2,29.18,WNW,302,0.0,3.6,72,0.00,,SKC,0.28,VWS V14.00,2013-08-18 18:50:00,
2013-08-18 14:55:00,79.9,68.8,29.18,SW,235,0.0,0.0,69,0.00,,SKC,0.28,VWS V14.00,2013-08-18 18:55:00,
2013-08-18 15:00:00,80.2,70.0,29.18,SW,227,0.0,0.0,71,0.00,,SKC,0.28,VWS V14.00,2013-08-18 19:00:00,
2013-08-18 15:05:00,80.8,70.1,29.18,WSW,256,0.0,2.2,70,0.00,,SKC,0.28,VWS V14.00,2013-08-18 19:05:00,
2013-08-18 15:10:00,80.8,69.7,29.18,South,190,0.0,0.0,69,0.00,,SKC,0.28,VWS V14.00,2013-08-18 19:10:00,
2013-08-18 15:15:00,80.4,68.9,29.18,SSW,210,0.0,0.0,68,0.00,,SKC,0.28,VWS V14.00,2013-08-18 19:15:00,
2013-08-18 15:20:00,80.1,69.0,29.18,SE,135,0.0,0.0,69,0.00,,SKC,0.28,VWS V14.00,2013-08-18 19:20:00,
2013-08-18 15:25:00,80.1,68.6,29.18,SE,135,0.0,0.0,68,0.00,,SKC,0.28,VWS V14.00,2013-08-18 19:25:00,
2013-08-18 15:30:00,79.5,67.6,29.18,SW,226,0.0,0.0,67,0.00,,SKC,0.28,VWS V14.00,2013-08-18 19:30:00,
2013-08-18 15:35:00,79.0,67.5,29.18,WSW,240,0.0,3.1,68,0.00,,SKC,0.28,VWS V14.00,2013-08-18 19:35:00,
2013-08-18 15:40:00,78.6,67.2,29.18,SE,133,2.7,2.7,68,0.00,,SKC,0.28,VWS V14.00,2013-08-18 19:40:00,
2013-08-18 15:45:00,78.3,66.8,29.18,East,81,0.0,3.1,68,0.00,,SKC,0.28,VWS V14.00,2013-08-18 19:45:00,
2013-08-18 15:50:00,77.7,66.3,29.18,WNW,289,0.0,0.0,68,0.00,,SKC,0.28,VWS V14.00,2013-08-18 19:50:00,
2013-08-18 15:55:00,77.7,66.3,29.18,SSW,204,0.0,0.0,68,0.00,,SKC,0.28,VWS V14.00,2013-08-18 19:55:00,
2013-08-18 16:00:00,77.2,65.8,29.18,WSW,247,0.0,0.0,68,0.00,,SKC,0.28,VWS V14.00,2013-08-18 20:00:00,
2013-08-18 16:05:00,77.0,65.6,29.18,SSE,158,0.0,4.0,68,0.00,,SKC,0.28,VWS V14.00,2013-08-18 20:05:00,
2013-08-18 16:10:00,77.2,66.2,29.18,SE,141,0.0,0.0,69,0.00,,SKC,0.28,VWS V14.00,2013-08-18 20:10:00,
2013-08-18 16:15:00,77.4,66.4,29.18,ESE,122,0.0,4.0,69,0.00,,SKC,0.28,VWS V14.00,2013-08-18 20:15:00,
2013-08-18 16:21:00,77.7,66.8,29.18,ESE,123,0.0,4.9,69,0.00,,SKC,0.28,VWS V14.00,2013-08-18 20:21:00,
2013-08-18 16:26:00,77.9,66.5,29.18,SE,136,0.0,4.9,68,0.00,,SKC,0.28,VWS V14.00,2013-08-18 20:26:00,
2013-08-18 16:31:00,78.1,66.7,29.18,SW,228,4.8,8.1,68,0.00,,SKC,0.28,VWS V14.00,2013-08-18 20:31:00,
2013-08-18 16:36:00,77.5,66.2,29.18,SSW,213,9.1,9.1,68,0.00,,SKC,0.28,VWS V14.00,2013-08-18 20:36:00,
2013-08-18 16:41:00,77.2,65.8,29.18,SSE,154,6.4,6.4,68,0.00,,SKC,0.28,VWS V14.00,2013-08-18 20:41:00,
2013-08-18 16:46:00,77.0,65.6,29.18,South,171,4.3,6.3,68,0.00,,SKC,0.28,VWS V14.00,2013-08-18 20:46:00,
2013-08-18 16:51:00,76.8,65.9,29.18,ESE,112,0.0,2.7,69,0.00,,SKC,0.28,VWS V14.00,2013-08-18 20:51:00,
2013-08-18 16:56:00,76.6,65.3,29.18,ESE,115,2.7,5.8,68,0.00,,SKC,0.28,VWS V14.00,2013-08-18 20:56:00,
2013-08-18 17:01:00,76.6,65.3,29.18,WSW,248,0.0,0.0,68,0.00,,SKC,0.28,VWS V14.00,2013-08-18 21:01:00,
2013-08-18 17:06:00,76.6,65.7,29.18,SSW,204,0.0,3.1,69,0.00,,SKC,0.28,VWS V14.00,2013-08-18 21:06:00,
2013-08-18 17:11:00,76.8,65.9,29.18,South,173,0.0,2.7,69,0.00,,SKC,0.28,VWS V14.00,2013-08-18 21:11:00,
2013-08-18 17:16:00,77.0,65.6,29.18,WSW,241,0.0,2.7,68,0.00,,SKC,0.28,VWS V14.00,2013-08-18 21:16:00,
2013-08-18 17:21:00,77.2,65.8,29.18,South,175,0.0,0.0,68,0.00,,SKC,0.28,VWS V14.00,2013-08-18 21:21:00,
2013-08-18 17:26:00,77.2,65.8,29.18,South,169,0.0,0.0,68,0.00,,SKC,0.28,VWS V14.00,2013-08-18 21:26:00,
2013-08-18 17:31:00,77.0,65.6,29.18,SW,235,0.0,5.8,68,0.00,,SKC,0.28,VWS V14.00,2013-08-18 21:31:00,
2013-08-18 17:36:00,76.6,65.3,29.18,SE,129,0.0,5.8,68,0.00,,SKC,0.28,VWS V14.00,2013-08-18 21:36:00,
2013-08-18 17:41:00,76.3,64.9,29.18,SSE,153,0.0,4.0,68,0.00,,SKC,0.28,VWS V14.00,2013-08-18 21:41:00,
2013-08-18 17:46:00,76.1,64.8,29.18,SSE,153,0.0,4.0,68,0.00,,SKC,0.28,VWS V14.00,2013-08-18 21:46:00,
2013-08-18 17:51:00,75.9,64.6,29.18,ESE,112,0.0,3.1,68,0.00,,SKC,0.28,VWS V14.00,2013-08-18 21:51:00,
2013-08-18 17:56:00,75.6,64.3,29.18,SSW,207,3.2,3.2,68,0.00,,SKC,0.28,VWS V14.00,2013-08-18 21:56:00,
2013-08-18 18:01:00,75.2,63.9,29.18,SSE,153,0.0,0.0,68,0.00,,SKC,0.28,VWS V14.00,2013-08-18 22:01:00,
2013-08-18 18:06:00,75.0,64.2,29.18,SE,134,0.0,3.6,69,0.00,,SKC,0.28,VWS V14.00,2013-08-18 22:06:00,
2013-08-18 18:11:00,74.8,64.0,29.18,SE,142,0.0,4.0,69,0.00,,SKC,0.28,VWS V14.00,2013-08-18 22:11:00,
2013-08-18 18:16:00,74.5,63.7,29.18,SE,135,0.0,6.3,69,0.00,,SKC,0.28,VWS V14.00,2013-08-18 22:16:00,
2013-08-18 18:21:00,74.3,63.5,29.18,SE,135,0.0,0.0,69,0.00,,SKC,0.28,VWS V14.00,2013-08-18 22:21:00,
2013-08-18 18:26:00,74.1,63.7,29.18,SSE,159,0.0,0.0,70,0.00,,SKC,0.28,VWS V14.00,2013-08-18 22:26:00,
2013-08-18 18:31:00,73.9,63.5,29.18,WSW,239,0.0,0.0,70,0.00,,SKC,0.28,VWS V14.00,2013-08-18 22:31:00,
2013-08-18 18:36:00,73.8,63.4,29.18,WSW,239,0.0,0.0,70,0.00,,SKC,0.28,VWS V14.00,2013-08-18 22:36:00,
2013-08-18 18:41:00,73.6,63.2,29.18,WSW,239,0.0,0.0,70,0.00,,SKC,0.28,VWS V14.00,2013-08-18 22:41:00,
2013-08-18 18:46:00,73.4,63.0,29.18,WSW,239,0.0,0.0,70,0.00,,SKC,0.28,VWS V14.00,2013-08-18 22:46:00,
2013-08-18 18:51:00,73.2,63.3,29.18,WSW,239,0.0,0.0,71,0.00,,SKC,0.28,VWS V14.00,2013-08-18 22:51:00,
2013-08-18 18:56:00,73.2,63.3,29.18,WSW,239,0.0,0.0,71,0.00,,SKC,0.28,VWS V14.00,2013-08-18 22:56:00,
2013-08-18 19:01:00,73.0,63.5,29.18,WSW,239,0.0,0.0,72,0.00,,SKC,0.28,VWS V14.00,2013-08-18 23:01:00,
2013-08-18 19:06:00,73.0,63.5,29.18,SSE,160,0.0,0.0,72,0.00,,SKC,0.28,VWS V14.00,2013-08-18 23:06:00,
2013-08-18 19:11:00,73.0,63.5,29.18,South,188,0.0,0.0,72,0.00,,SKC,0.28,VWS V14.00,2013-08-18 23:11:00,
2013-08-18 19:16:00,73.0,63.9,29.18,SSW,201,0.0,0.0,73,0.00,,SKC,0.28,VWS V14.00,2013-08-18 23:16:00,
2013-08-18 19:21:00,73.0,63.9,29.18,SSE,149,0.0,0.0,73,0.00,,SKC,0.28,VWS V14.00,2013-08-18 23:21:00,
2013-08-18 19:26:00,72.9,63.7,29.18,SSE,149,0.0,0.0,73,0.00,,SKC,0.28,VWS V14.00,2013-08-18 23:26:00,
2013-08-18 19:31:00,72.9,63.7,29.18,SSE,149,0.0,0.0,73,0.00,,SKC,0.28,VWS V14.00,2013-08-18 23:31:00,
2013-08-18 19:36:00,72.7,63.5,29.18,South,185,0.0,0.0,73,0.00,,SKC,0.28,VWS V14.00,2013-08-18 23:36:00,
2013-08-18 19:41:00,72.5,63.8,29.18,ESE,114,0.0,0.0,74,0.00,,SKC,0.28,VWS V14.00,2013-08-18 23:41:00,
2013-08-18 19:46:00,72.3,63.6,29.18,ESE,113,0.0,0.0,74,0.00,,SKC,0.28,VWS V14.00,2013-08-18 23:46:00,
2013-08-18 19:51:00,72.3,63.6,29.18,SE,136,0.0,0.0,74,0.00,,SKC,0.28,VWS V14.00,2013-08-18 23:51:00,
2013-08-18 19:56:00,72.1,63.4,29.18,SE,130,0.0,0.0,74,0.00,,SKC,0.28,VWS V14.00,2013-08-18 23:56:00,
2013-08-18 20:01:00,72.1,63.4,29.18,SE,130,0.0,0.0,74,0.00,,SKC,0.28,VWS V14.00,2013-08-19 00:01:00,
2013-08-18 20:06:00,72.0,63.2,29.18,SE,129,0.0,0.0,74,0.00,,SKC,0.28,VWS V14.00,2013-08-19 00:06:00,
2013-08-18 20:11:00,72.0,63.2,29.18,SE,130,0.0,0.0,74,0.00,,SKC,0.28,VWS V14.00,2013-08-19 00:11:00,
2013-08-18 20:16:00,71.8,63.4,29.18,SE,130,0.0,0.0,75,0.00,,SKC,0.28,VWS V14.00,2013-08-19 00:16:00,
2013-08-18 20:21:00,71.6,63.3,29.21,SE,130,0.0,0.0,75,0.00,,SKC,0.28,VWS V14.00,2013-08-19 00:21:00,
2013-08-18 20:26:00,71.4,63.1,29.21,SE,130,0.0,0.0,75,0.00,,SKC,0.28,VWS V14.00,2013-08-19 00:26:00,
2013-08-18 20:31:00,71.2,63.3,29.21,SE,130,0.0,0.0,76,0.00,,SKC,0.28,VWS V14.00,2013-08-19 00:31:00,
2013-08-18 20:36:00,71.2,63.3,29.18,SE,130,0.0,0.0,76,0.00,,SKC,0.28,VWS V14.00,2013-08-19 00:36:00,
2013-08-18 20:41:00,71.1,63.1,29.18,SE,130,0.0,0.0,76,0.00,,SKC,0.28,VWS V14.00,2013-08-19 00:41:00,
2013-08-18 20:46:00,70.9,63.0,29.18,SE,130,0.0,0.0,76,0.00,,SKC,0.28,VWS V14.00,2013-08-19 00:46:00,
2013-08-18 20:51:00,70.9,63.0,29.21,SE,130,0.0,0.0,76,0.00,,SKC,0.28,VWS V14.00,2013-08-19 00:51:00,
2013-08-18 20:56:00,70.9,63.3,29.21,SE,129,0.0,0.0,77,0.00,,SKC,0.28,VWS V14.00,2013-08-19 00:56:00,
2013-08-18 21:01:00,70.9,63.3,29.21,SE,130,0.0,0.0,77,0.00,,SKC,0.28,VWS V14.00,2013-08-19 01:01:00,
2013-08-18 21:06:00,70.7,63.1,29.21,SE,130,0.0,0.0,77,0.00,,SKC,0.28,VWS V14.00,2013-08-19 01:06:00,
2013-08-18 21:11:00,70.7,63.1,29.21,SE,130,0.0,0.0,77,0.00,,SKC,0.28,VWS V14.00,2013-08-19 01:11:00,
2013-08-18 21:16:00,70.7,63.1,29.21,SE,130,0.0,0.0,77,0.00,,SKC,0.28,VWS V14.00,2013-08-19 01:16:00,
2013-08-18 21:21:00,70.5,63.3,29.21,SE,130,0.0,0.0,78,0.00,,SKC,0.28,VWS V14.00,2013-08-19 01:21:00,
2013-08-18 21:26:00,70.5,63.3,29.21,SE,130,0.0,0.0,78,0.00,,SKC,0.28,VWS V14.00,2013-08-19 01:26:00,
2013-08-18 21:31:00,70.5,63.3,29.21,SE,130,0.0,0.0,78,0.00,,SKC,0.28,VWS V14.00,2013-08-19 01:31:00,
2013-08-18 21:36:00,70.5,63.3,29.21,SE,130,0.0,0.0,78,0.00,,SKC,0.28,VWS V14.00,2013-08-19 01:36:00,
2013-08-18 21:41:00,70.5,63.3,29.21,SE,130,0.0,0.0,78,0.00,,SKC,0.28,VWS V14.00,2013-08-19 01:41:00,
2013-08-18 21:46:00,70.5,63.7,29.21,SE,129,0.0,0.0,79,0.00,,SKC,0.28,VWS V14.00,2013-08-19 01:46:00,
2013-08-18 21:51:00,70.3,63.5,29.21,SE,130,0.0,0.0,79,0.00,,SKC,0.28,VWS V14.00,2013-08-19 01:51:00,
2013-08-18 21:56:00,70.3,63.5,29.21,SE,129,0.0,0.0,79,0.00,,SKC,0.28,VWS V14.00,2013-08-19 01:56:00,
2013-08-18 22:02:00,70.3,63.5,29.21,SE,130,0.0,0.0,79,0.00,,SKC,0.28,VWS V14.00,2013-08-19 02:02:00,
2013-08-18 22:07:00,70.2,63.3,29.21,SE,130,0.0,0.0,79,0.00,,SKC,0.28,VWS V14.00,2013-08-19 02:07:00,
2013-08-18 22:12:00,70.0,63.2,29.21,SE,130,0.0,0.0,79,0.00,,SKC,0.28,VWS V14.00,2013-08-19 02:12:00,
2013-08-18 22:17:00,69.8,63.0,29.21,SE,130,0.0,0.0,79,0.00,,SKC,0.28,VWS V14.00,2013-08-19 02:17:00,
2013-08-18 22:22:00,69.6,63.2,29.21,SE,130,0.0,0.0,80,0.00,,SKC,0.28,VWS V14.00,2013-08-19 02:22:00,
2013-08-18 22:27:00,69.6,63.2,29.21,SE,130,0.0,0.0,80,0.00,,SKC,0.28,VWS V14.00,2013-08-19 02:27:00,
2013-08-18 22:32:00,69.6,63.2,29.21,SE,129,0.0,0.0,80,0.00,,SKC,0.28,VWS V14.00,2013-08-19 02:32:00,
2013-08-18 22:37:00,69.4,63.0,29.21,SE,129,0.0,0.0,80,0.00,,SKC,0.28,VWS V14.00,2013-08-19 02:37:00,
2013-08-18 22:42:00,69.4,63.4,29.21,SE,130,0.0,0.0,81,0.00,,SKC,0.28,VWS V14.00,2013-08-19 02:42:00,
2013-08-18 22:47:00,69.4,63.4,29.21,SE,130,0.0,0.0,81,0.04,,SKC,0.32,VWS V14.00,2013-08-19 02:47:00,
2013-08-18 22:52:00,69.3,63.2,29.21,SE,129,0.0,0.0,81,0.04,,SKC,0.32,VWS V14.00,2013-08-19 02:52:00,
2013-08-18 22:57:00,69.3,63.2,29.21,SE,129,0.0,0.0,81,0.04,,SKC,0.32,VWS V14.00,2013-08-19 02:57:00,
2013-08-18 23:02:00,69.3,63.5,29.21,SE,130,0.0,0.0,82,0.04,,SKC,0.32,VWS V14.00,2013-08-19 03:02:00,
2013-08-18 23:07:00,69.3,63.5,29.21,SE,129,0.0,0.0,82,0.04,,SKC,0.32,VWS V14.00,2013-08-19 03:07:00,
2013-08-18 23:12:00,69.3,63.5,29.21,ESE,114,0.0,0.0,82,0.04,,SKC,0.32,VWS V14.00,2013-08-19 03:12:00,
2013-08-18 23:17:00,69.1,63.4,29.21,ESE,114,0.0,0.0,82,0.04,,SKC,0.32,VWS V14.00,2013-08-19 03:17:00,
2013-08-18 23:22:00,69.1,63.4,29.21,ESE,114,0.0,0.0,82,0.04,,SKC,0.32,VWS V14.00,2013-08-19 03:22:00,
2013-08-18 23:27:00,69.1,63.4,29.21,ESE,114,0.0,0.0,82,0.04,,SKC,0.32,VWS V14.00,2013-08-19 03:27:00,
2013-08-18 23:32:00,69.1,63.7,29.21,ESE,114,0.0,0.0,83,0.04,,SKC,0.32,VWS V14.00,2013-08-19 03:32:00,
2013-08-18 23:37:00,69.1,63.7,29.21,SW,218,0.0,0.0,83,0.04,,SKC,0.32,VWS V14.00,2013-08-19 03:37:00,
2013-08-18 23:42:00,69.1,63.7,29.21,SW,218,0.0,0.0,83,0.04,,SKC,0.32,VWS V14.00,2013-08-19 03:42:00,
2013-08-18 23:47:00,69.1,63.7,29.21,SW,218,0.0,0.0,83,0.04,,SKC,0.32,VWS V14.00,2013-08-19 03:47:00,
2013-08-18 23:52:00,69.1,63.7,29.21,SW,218,0.0,0.0,83,0.00,,SKC,0.32,VWS V14.00,2013-08-19 03:52:00,
2013-08-18 23:57:00,69.1,64.1,29.21,SW,218,0.0,0.0,84,0.00,,SKC,0.32,VWS V14.00,2013-08-19 03:57:00,